sim
Sign-in with your pilot id or email,
or register
Callsign
Passwort

Schedule Details

Flight Number: RYR7068 (2)
Departure: Rome Ciampino Airport (LIRA) at 05:40
Arrival: Thessaloniki International Airport (LGTS) at 07:25
Route: Ryanair Passenger Schedule. Enter filed route here before submitting Pirep.

Weather Information
Getting current METAR information for LIRA 210020Z 10004KT CAVOK 14/06 Q1021
Getting current METAR information for LGTS 210020Z 11005KT 9999 SCT025 09/07 Q1026 NOSIG

Schedule Frequency

Route Map